Location: Drocourt
(49.0571°N, 1.7669°E)
Time: 05:03:02
(UTC+00:00)

ISS - Visible Passes

Search period start: 04 March 2024 00:00
Search period end: 14 March 2024 00:00
Orbit: 414 x 422 km, 51.6° (Epoch: 04 March)

Date Brightness Start Highest point End Pass type
(mag) Time Alt. Az. Time Alt. Az. Time Alt. Az.
04 Mar -1.0 03:36:46 18° E 03:36:46 18° E 03:37:48 10° E visible
04 Mar -3.4 05:09:42 27° W 05:11:14 49° SSW 05:14:31 10° SE visible
05 Mar -3.4 04:23:46 57° SSE 04:23:46 57° SSE 04:26:38 10° ESE visible
06 Mar -0.9 03:37:55 15° ESE 03:37:55 15° ESE 03:38:36 10° ESE visible
06 Mar -2.4 05:10:51 21° WSW 05:11:42 24° SW 05:14:28 10° SSE visible
07 Mar -2.1 04:25:07 24° SSE 04:25:07 24° SSE 04:26:51 10° SSE visible
08 Mar -1.4 05:12:28 10° SW 05:12:28 10° SW 05:12:36 10° SSW visible
13 Mar -1.7 19:30:28 10° S 19:31:33 15° S 19:31:33 15° S visible
